Location: *
(58.4167°N, 22.5000°E)
Time: 12:33:41
(UTC+00:00)

ISS - Pass Details

Date: 22 September 2019
Orbit: 411 x 421 km, 51.6° (Epoch: 21 October)

Event Time Altitude Azimuth Distance (km) Brightness Sun altitude
Rises 17:45:44 0° 207° (SSW) 2,338 0.2 -10.5°
Reaches altitude 10° 17:48:48 10° 176° (S) 1,480 -1.2 -10.9°
Maximum altitude 17:50:13 12° 151° (SSE) 1,352 -1.6 -11.1°
Enters shadow 17:50:24 12° 147° (SSE) 1,355 -1.6 -11.1°
